KQA721 HKMO-HKJK

Flight info

Callsign KQA721
Flight time N/A
Altitude 24000
Route NERAG1A UTIKU Q315 UTEPI UTEPI1A
Aircraft A20N/M-SDE2E3FGHIRWXY/LB1

Departure

Time 2026-04-26 18:05
Airport Moi International Airport (HKMO)

Arrival

Time N/A
Airport Jomo Kenyatta International Airport (HKJK)
Time Latitude Longitude Altitude Speed Heading
2026-04-26 17:41 -4.03014 39.60302 205 ft 0 kts 120°
2026-04-26 17:51 -4.03007 39.60288 212 ft 4 kts 114°
2026-04-26 17:51 -4.02995 39.60270 206 ft 4 kts 135°
2026-04-26 17:51 -4.02976 39.60256 206 ft 1 kts 150°
2026-04-26 17:51 -4.02975 39.60256 206 ft 1 kts 150°
2026-04-26 17:54 -4.02976 39.60256 206 ft 1 kts 156°
2026-04-26 17:54 -4.02979 39.60254 207 ft 0 kts 186°
2026-04-26 17:56 -4.02990 39.60250 205 ft 4 kts 204°
2026-04-26 17:56 -4.03026 39.60222 203 ft 5 kts 223°
2026-04-26 17:57 -4.03058 39.60122 202 ft 11 kts 290°
2026-04-26 17:57 -4.03020 39.60050 212 ft 12 kts 299°
2026-04-26 17:57 -4.02985 39.59987 202 ft 8 kts 299°
2026-04-26 17:57 -4.02947 39.59944 205 ft 9 kts 335°
2026-04-26 17:58 -4.02713 39.60054 211 ft 16 kts 28°
2026-04-26 17:59 -4.02498 39.60174 212 ft 20 kts 29°
2026-04-26 17:59 -4.02374 39.60244 214 ft 21 kts 29°
2026-04-26 17:59 -4.02240 39.60319 213 ft 21 kts 29°
2026-04-26 17:59 -4.02108 39.60393 206 ft 23 kts 28°
2026-04-26 18:00 -4.01969 39.60470 209 ft 23 kts 29°
2026-04-26 18:00 -4.01827 39.60551 214 ft 24 kts 29°
2026-04-26 18:00 -4.01686 39.60629 212 ft 22 kts 29°
2026-04-26 18:00 -4.01579 39.60689 212 ft 13 kts 29°
2026-04-26 18:01 -4.01492 39.60724 214 ft 14 kts 11°
2026-04-26 18:01 -4.01418 39.60724 209 ft 7 kts 346°
2026-04-26 18:01 -4.01398 39.60717 209 ft 0 kts 336°
2026-04-26 18:02 -4.01393 39.60715 215 ft 2 kts 335°
2026-04-26 18:02 -4.01388 39.60711 213 ft 3 kts 333°
2026-04-26 18:02 -4.01339 39.60660 209 ft 8 kts 295°
2026-04-26 18:02 -4.01350 39.60614 209 ft 8 kts 216°
2026-04-26 18:03 -4.01358 39.60610 211 ft 0 kts 210°
2026-04-26 18:04 -4.01433 39.60566 212 ft 48 kts 209°
2026-04-26 18:04 -4.02272 39.60104 208 ft 152 kts 209°
2026-04-26 18:04 -4.03311 39.59521 648 ft 174 kts 210°
2026-04-26 18:05 -4.05021 39.58024 2625 ft 166 kts 266°
2026-04-26 18:05 -4.04844 39.56959 3570 ft 142 kts 289°
2026-04-26 18:05 -4.04644 39.56288 3784 ft 163 kts 283°
2026-04-26 18:05 -4.04390 39.54652 4359 ft 192 kts 275°
2026-04-26 18:06 -4.04263 39.53746 4682 ft 205 kts 281°
2026-04-26 18:06 -4.03906 39.52285 5141 ft 226 kts 285°
2026-04-26 18:06 -4.03454 39.50677 5555 ft 251 kts 285°
2026-04-26 18:06 -4.02979 39.48950 6136 ft 268 kts 285°
2026-04-26 18:07 -4.02499 39.47114 7043 ft 273 kts 284°
2026-04-26 18:07 -4.02029 39.45252 7982 ft 277 kts 284°
2026-04-26 18:07 -4.01562 39.43366 8889 ft 281 kts 284°
2026-04-26 18:07 -4.01250 39.42098 9489 ft 283 kts 284°
2026-04-26 18:08 -4.00599 39.39525 10470 ft 298 kts 288°
2026-04-26 18:08 -3.99661 39.37578 10801 ft 321 kts 304°
2026-04-26 18:08 -3.98150 39.35835 11232 ft 338 kts 315°
2026-04-26 18:08 -3.96470 39.34158 12037 ft 342 kts 314°
2026-04-26 18:09 -3.94787 39.32449 12860 ft 346 kts 314°
2026-04-26 18:09 -3.93111 39.30729 13626 ft 350 kts 314°
2026-04-26 18:09 -3.91395 39.28960 14387 ft 355 kts 314°
2026-04-26 18:09 -3.89670 39.27180 15118 ft 359 kts 314°
2026-04-26 18:10 -3.87914 39.25368 15846 ft 363 kts 314°
2026-04-26 18:10 -3.86159 39.23558 16536 ft 367 kts 314°
2026-04-26 18:10 -3.84364 39.21707 17217 ft 371 kts 314°
2026-04-26 18:10 -3.82560 39.19847 17880 ft 374 kts 314°
2026-04-26 18:11 -3.80754 39.17985 18514 ft 378 kts 314°
2026-04-26 18:11 -3.78903 39.16077 19143 ft 382 kts 314°
2026-04-26 18:11 -3.77039 39.14155 19758 ft 386 kts 314°
2026-04-26 18:11 -3.75222 39.12283 20340 ft 389 kts 314°
2026-04-26 18:12 -3.73345 39.10347 20932 ft 393 kts 314°
2026-04-26 18:12 -3.71430 39.08373 21503 ft 396 kts 314°
2026-04-26 18:12 -3.69498 39.06382 22061 ft 400 kts 314°
2026-04-26 18:12 -3.67543 39.04367 22605 ft 403 kts 314°
2026-04-26 18:13 -3.65577 39.02341 23136 ft 407 kts 314°
2026-04-26 18:13 -3.63596 39.00300 23650 ft 410 kts 314°
2026-04-26 18:13 -3.61622 38.98266 23928 ft 413 kts 314°
2026-04-26 18:13 -3.60267 38.96870 23988 ft 413 kts 314°
2026-04-26 18:14 -3.57612 38.94135 24000 ft 413 kts 314°
2026-04-26 18:14 -3.55608 38.92070 24000 ft 413 kts 314°
2026-04-26 18:14 -3.53601 38.90002 24000 ft 413 kts 314°
2026-04-26 18:14 -3.51594 38.87935 24000 ft 413 kts 314°
2026-04-26 18:15 -3.49619 38.85900 24000 ft 413 kts 314°
2026-04-26 18:15 -3.47600 38.83819 24000 ft 413 kts 314°
2026-04-26 18:15 -3.45608 38.81760 24000 ft 413 kts 314°
2026-04-26 18:15 -3.43617 38.79702 24000 ft 413 kts 314°
2026-04-26 18:16 -3.41614 38.77631 24000 ft 413 kts 314°
2026-04-26 18:16 -3.37599 38.73482 24000 ft 413 kts 314°
2026-04-26 18:16 -3.35623 38.71440 24000 ft 413 kts 314°
2026-04-26 18:17 -3.33619 38.69370 24000 ft 413 kts 314°
2026-04-26 18:17 -3.31611 38.67297 24000 ft 413 kts 314°
2026-04-26 18:17 -3.29600 38.65220 24000 ft 413 kts 314°
2026-04-26 18:17 -3.27620 38.63175 24000 ft 413 kts 314°
2026-04-26 18:18 -3.25609 38.61098 24000 ft 413 kts 314°
2026-04-26 18:18 -3.23596 38.59019 24000 ft 413 kts 314°
2026-04-26 18:18 -3.21598 38.56956 24000 ft 414 kts 314°
2026-04-26 18:18 -3.19612 38.54906 24000 ft 414 kts 314°
2026-04-26 18:19 -3.17600 38.52828 24000 ft 414 kts 314°
2026-04-26 18:19 -3.15616 38.50780 24000 ft 414 kts 314°
2026-04-26 18:19 -3.13610 38.48710 24000 ft 414 kts 314°
2026-04-26 18:19 -3.11603 38.46637 24000 ft 414 kts 314°
2026-04-26 18:20 -3.09582 38.44551 24000 ft 414 kts 314°
2026-04-26 18:20 -3.07592 38.42498 24000 ft 414 kts 314°
2026-04-26 18:20 -3.05599 38.40440 24000 ft 414 kts 314°
2026-04-26 18:20 -3.04253 38.39051 24000 ft 414 kts 314°
2026-04-26 18:21 -3.01580 38.36293 24000 ft 413 kts 314°
2026-04-26 18:21 -2.99600 38.34250 24000 ft 414 kts 314°
2026-04-26 18:21 -2.97592 38.32178 24000 ft 414 kts 314°
2026-04-26 18:21 -2.95582 38.30104 24000 ft 414 kts 314°
2026-04-26 18:22 -2.93569 38.28027 24000 ft 414 kts 314°
2026-04-26 18:22 -2.91557 38.25951 24000 ft 415 kts 314°
2026-04-26 18:22 -2.89575 38.23907 24000 ft 415 kts 314°
2026-04-26 18:22 -2.87553 38.21820 24000 ft 415 kts 314°
2026-04-26 18:23 -2.85556 38.19761 24000 ft 415 kts 314°
2026-04-26 18:23 -2.83545 38.17687 24000 ft 415 kts 314°
2026-04-26 18:23 -2.81532 38.15611 24000 ft 415 kts 314°
2026-04-26 18:23 -2.79511 38.13526 24000 ft 415 kts 314°
2026-04-26 18:24 -2.77521 38.11474 24000 ft 415 kts 314°
2026-04-26 18:24 -2.75511 38.09401 24000 ft 415 kts 314°
2026-04-26 18:24 -2.73481 38.07308 24000 ft 415 kts 314°
2026-04-26 18:24 -2.71467 38.05231 24000 ft 416 kts 314°
2026-04-26 18:25 -2.69469 38.03172 24000 ft 416 kts 314°
2026-04-26 18:25 -2.67450 38.01090 24000 ft 416 kts 314°
2026-04-26 18:25 -2.65445 37.99022 24000 ft 416 kts 314°
2026-04-26 18:25 -2.63414 37.96929 24000 ft 416 kts 314°
2026-04-26 18:26 -2.61405 37.94858 24000 ft 416 kts 314°
2026-04-26 18:26 -2.59376 37.92766 24000 ft 417 kts 314°
2026-04-26 18:26 -2.57374 37.90703 24000 ft 417 kts 314°
2026-04-26 18:26 -2.55343 37.88609 24000 ft 417 kts 314°
2026-04-26 18:27 -2.53311 37.86515 24000 ft 417 kts 314°
2026-04-26 18:27 -2.51316 37.84459 24000 ft 418 kts 314°
2026-04-26 18:27 -2.49284 37.82365 24000 ft 418 kts 314°
2026-04-26 18:27 -2.47255 37.80274 24000 ft 418 kts 314°
2026-04-26 18:28 -2.45247 37.78205 24000 ft 418 kts 314°
2026-04-26 18:28 -2.43220 37.76116 24000 ft 417 kts 314°
2026-04-26 18:28 -2.41194 37.74028 24000 ft 418 kts 314°
2026-04-26 18:28 -2.39165 37.71938 24000 ft 418 kts 314°
2026-04-26 18:29 -2.37165 37.69878 24000 ft 417 kts 314°
2026-04-26 18:29 -2.35142 37.67793 24000 ft 417 kts 314°
2026-04-26 18:29 -2.33111 37.65702 24000 ft 416 kts 314°
2026-04-26 18:29 -2.31111 37.63641 24000 ft 416 kts 314°
2026-04-26 18:30 -2.29093 37.61562 24000 ft 416 kts 314°
2026-04-26 18:30 -2.27075 37.59484 24000 ft 416 kts 314°
2026-04-26 18:30 -2.25051 37.57399 24000 ft 417 kts 314°
2026-04-26 18:30 -2.23024 37.55311 24000 ft 417 kts 314°
2026-04-26 18:31 -2.21019 37.53246 24000 ft 417 kts 314°
2026-04-26 18:31 -2.19002 37.51169 24000 ft 417 kts 314°
2026-04-26 18:31 -2.16964 37.49070 24000 ft 417 kts 314°
2026-04-26 18:31 -2.14962 37.47008 24000 ft 417 kts 314°
2026-04-26 18:32 -2.12936 37.44923 24000 ft 417 kts 314°
2026-04-26 18:32 -2.10910 37.42836 24000 ft 417 kts 314°
2026-04-26 18:32 -2.08916 37.40770 24000 ft 418 kts 313°
2026-04-26 18:32 -2.06909 37.38650 24000 ft 420 kts 313°
2026-04-26 18:33 -2.04965 37.36472 24001 ft 420 kts 308°
2026-04-26 18:33 -2.03275 37.34074 23856 ft 418 kts 301°
2026-04-26 18:33 -2.01908 37.31520 23609 ft 414 kts 294°
2026-04-26 18:33 -2.00869 37.29241 23394 ft 413 kts 294°
2026-04-26 18:34 -1.99754 37.26822 22994 ft 413 kts 295°
2026-04-26 18:34 -1.98545 37.24218 22437 ft 413 kts 295°
2026-04-26 18:34 -1.97338 37.21626 21877 ft 409 kts 295°
2026-04-26 18:34 -1.96141 37.19054 21319 ft 405 kts 295°
2026-04-26 18:35 -1.94925 37.16519 20679 ft 402 kts 299°
2026-04-26 18:35 -1.93243 37.14263 19646 ft 410 kts 315°
2026-04-26 18:35 -1.91070 37.12445 18810 ft 413 kts 322°
2026-04-26 18:35 -1.88779 37.10737 18200 ft 408 kts 323°
2026-04-26 18:36 -1.86498 37.09057 17562 ft 404 kts 323°
2026-04-26 18:36 -1.84259 37.07392 16909 ft 401 kts 323°
2026-04-26 18:36 -1.82022 37.05713 16260 ft 397 kts 322°
2026-04-26 18:36 -1.79857 37.04075 15636 ft 393 kts 322°
2026-04-26 18:37 -1.77680 37.02423 15006 ft 390 kts 322°
2026-04-26 18:37 -1.75523 37.00783 14390 ft 386 kts 322°
2026-04-26 18:37 -1.73392 36.99163 13780 ft 382 kts 322°
2026-04-26 18:37 -1.71282 36.97559 13176 ft 379 kts 322°
2026-04-26 18:38 -1.69190 36.95969 12573 ft 376 kts 322°
2026-04-26 18:38 -1.67143 36.94413 12002 ft 372 kts 322°
2026-04-26 18:38 -1.66003 36.93547 11712 ft 369 kts 322°
2026-04-26 18:38 -1.63965 36.91999 11200 ft 364 kts 322°
2026-04-26 18:39 -1.61963 36.90479 10693 ft 359 kts 322°
2026-04-26 18:39 -1.59992 36.88981 10438 ft 347 kts 322°
2026-04-26 18:39 -1.58142 36.87576 10237 ft 327 kts 322°
2026-04-26 18:39 -1.56387 36.86243 10071 ft 307 kts 322°
2026-04-26 18:40 -1.54744 36.84995 9996 ft 286 kts 322°
2026-04-26 18:40 -1.53143 36.83778 9999 ft 292 kts 322°
2026-04-26 18:40 -1.51531 36.82553 9999 ft 290 kts 322°
2026-04-26 18:40 -1.49900 36.81348 9997 ft 293 kts 324°
2026-04-26 18:41 -1.48266 36.80178 9999 ft 290 kts 324°
2026-04-26 18:41 -1.46598 36.79019 9860 ft 290 kts 330°
2026-04-26 18:41 -1.44699 36.78389 9448 ft 293 kts 355°
2026-04-26 18:41 -1.42669 36.78627 8912 ft 297 kts 20°
2026-04-26 18:42 -1.40906 36.79722 8340 ft 301 kts 45°
2026-04-26 18:42 -1.39630 36.81363 7765 ft 305 kts 57°
2026-04-26 18:42 -1.38524 36.83190 7222 ft 308 kts 59°
2026-04-26 18:42 -1.37426 36.84998 6942 ft 300 kts 58°
2026-04-26 18:43 -1.36290 36.86733 6537 ft 292 kts 55°
2026-04-26 18:43 -1.35241 36.88228 6196 ft 283 kts 54°
2026-04-26 18:43 -1.34171 36.89699 5850 ft 274 kts 54°
2026-04-26 18:43 -1.33094 36.91183 5493 ft 252 kts 54°